Regional Weather Roundup
Issued by NWS Upton, NY

Current Version | Previous Version | Graphics & Text | Print | Product List | Glossary Off
Versions: 1 2 3 4 5 6 7 8 9 10 11 12 13 14 15 16 17 18 19 20 21 22 23 24 25 26 27

000
ASUS41 KOKX 240205
RWROKX

REGIONAL WEATHER ROUNDUP
NATIONAL WEATHER SERVICE NEW YORK NY
1000 PM EDT WED APR 23 2014

NOTE: "FAIR" INDICATES FEW OR NO CLOUDS BELOW 12,000 FEET WITH NO
SIGNIFICANT WEATHER AND/OR OBSTRUCTIONS TO VISIBILITY.

NYZ071-072-176-178-NJZ106-104-240300-
NEW YORK CITY METRO AREA


CITY           SKY/WX    TMP DP  RH WIND       PRES   REMARKS
CENTRAL PARK   CLOUDY    46  28  49 NW10G24   29.84R
LAGUARDIA APRT CLOUDY    46  29  51 NW25G33   29.80R
KENNEDY INTL   MOCLDY    47  27  45 NW28G36   29.81R
NEWARK/LIBERTY CLOUDY    47  29  49 NW15G26   29.83R
TETERBORO      CLOUDY    47  30  51 NW15G25   29.81R
$$

NYZ177-179-078>081-240300-
LONG ISLAND NEW YORK

CITY           SKY/WX    TMP DP  RH WIND       PRES   REMARKS
FARMINGDALE    CLOUDY    46  30  53 NW14G25   29.77R
ISLIP          MOCLDY    47  30  51 NW15G25   29.73R
SHIRLEY        CLOUDY    48  31  51 NW22G30   29.74R
WESTHAMPTON    PTCLDY    48  30  49 NW22G31   29.71R
MONTAUK POINT    N/A     48  36  63 W15G25    29.68R
$$

NYZ052-065-067-240300-
HUDSON VALLEY

CITY           SKY/WX    TMP DP  RH WIND       PRES   REMARKS
WHITE PLAINS   PTCLDY    45  29  53 NW20G30   29.76R
NEWBURGH       MOCLDY    45  30  57 W12G23    29.81R
MONTGOMERY     CLOUDY    44  30  57 NW12      29.82R
POUGHKEEPSIE   CLOUDY    47  30  51 NW10      29.79R
ALBANY         CLOUDY    43  31  62 NW16      29.79R
$$

NJZ001-105-106-008-010-013-015-019>022-104-240300-
NEW JERSEY

CITY           SKY/WX    TMP DP  RH WIND       PRES   REMARKS
NEWARK/LIBERTY CLOUDY    47  29  49 NW15G26   29.83R
TETERBORO      CLOUDY    47  30  51 NW15G25   29.81R
CALDWELL       CLOUDY    45  29  53 NW10G20   29.84R
MORRISTOWN     CLOUDY    45  28  53 N10G20    29.85R
SOMERVILLE     CLOUDY    46  27  47 NW16G32   29.84R
LINDEN         CLOUDY    47  29  49 NW15G33   29.86R
SUSSEX         PTCLDY    44  30  57 VRB5G23   29.85R
ANDOVER          N/A     41  29  62 NW8G22    29.84R
TRENTON        PTCLDY    45  26  47 N29G39    29.85R
MILLVILLE      CLEAR     50  33  52 NW22G30   29.87R
ATLANTIC CITY  CLOUDY    53  32  44 NW17G26   29.81R
WRIGHTSTOWN    PTCLDY    47  28  46 NW29G38   29.83R
TOMS RIVER     CLEAR     48  28  46 NW14G22   29.83R
BELMAR         CLOUDY    46  28  49 NW32G39   29.83R
$$

PAZ047>061-062-071-240300-
EASTERN PENNSYLVANIA

CITY           SKY/WX    TMP DP  RH WIND       PRES   REMARKS
PHILADELPHIA   PTCLDY    51  28  41 NW16G32   29.89R
ALLENTOWN      PTCLDY    45  24  43 NW13G24   29.91R
SCRANTON       CLOUDY    41  26  55 W8        29.90R
$$

CTZ002-004>006-009-010-012-RIZ004-006-007-MAZ004-011-015-240300-
SOUTHERN NEW ENGLAND
 IN CT

CITY           SKY/WX    TMP DP  RH WIND       PRES   REMARKS
BRADLEY INTL   MOCLDY    47  32  56 NW17G24   29.69R
HARTFORD       CLOUDY    47  31  53 NW16G28   29.70R
DANBURY        MOCLDY    45  29  53 NW14G20   29.76R
WTRBRY/OXFORD  CLOUDY    43  28  56 NW15G24   29.75R
BRIDGEPORT     MOCLDY    49  30  48 NW16G23   29.74R
MERIDEN        CLOUDY    46  30  53 NW18G28   29.72R
NEW HAVEN      CLOUDY    48  30  49 NW15G24   29.72R
CHESTER        FAIR      45  32  61 NW15G31   29.68R
GROTON         CLOUDY    49  34  56 NW21G28   29.65R
WILLIMANTIC    CLOUDY    47  34  60 W12G22    29.66R

 IN RI

CITY           SKY/WX    TMP DP  RH WIND       PRES   REMARKS
PROVIDENCE     CLOUDY    50  32  50 NW14G23   29.61R
BLOCK ISLAND   CLOUDY    48  34  57 NW14G23   29.62R
WESTERLY       CLOUDY    49  33  54 VRB7G22   29.64R

 IN MA

CITY           SKY/WX    TMP DP  RH WIND       PRES   REMARKS
BOSTON         PTCLDY    49  32  52 NW26G40   29.58R
WORCESTER      CLOUDY    43  30  60 NW22G33   29.62R
WESTFIELD      CLOUDY    46  33  60 NW16      29.69R
PROVINCETOWN   CLOUDY    45  37  76 MISG      29.53S
NANTUCKET      CLOUDY    49  37  63 NW23G29   29.52R
$$

ANZ330-335-338-340-345-350-353-355-240300-
COASTAL MARINE OBSERVATIONS


STATION/POSITION TIME  SKY/WX   TEMP    WIND        PRES    VSBY  WAVE
                                AIR SEA DIR/SP/G                  HT/PER
                 (UTC)          (F)     (DEG/KT/KT) (MB)    (MI)  (FT/S)
NY HARB ENTRANCE 0200            46 45  VRB 27/ 33  1008.2
4S FIRE IS       0100               45                N/A           4/ 5
23SW MTP         0200            47 43  300/ 23/ 29 1004.2          5/ 5
HUDSON CANYON    0100            48 44  320/ 23/ 27 1004.8          5/ 6
EXECUTION ROCKS  0200            46 45  310/ 19/ 27   N/A
WESTERN LI SOUND 0200            47     300/ 17/ 25   N/A           2/ 3
CENTRAL LI SOUND 0100            47 43  300/ 25/ 31   N/A           3/ 4
EASTERN LI SOUND NOT AVBL
ROBBINS REEF     0200            46     320/ 24/ 30   N/A
$$


>>>>>>>>>>>>>>>>>>>>>>>>>>>> KEY <<<<<<<<<<<<<<<<<<<<<<<<<<<
>                                                          <
>     SKY/WX - SKY CONDITION/PRESENT WEATHER               <
>     TMP    - TEMPERATURE IN FAHRENHEIT                   <
>     DP     - DEWPOINT IN FAHRENHEIT                      <
>     RH     - RELATIVE HUMIDITY IN PERCENT                <
>     WIND   - DIRECTION AND SPEED IN MPH                  <
>     PRES   - MEAN SEA LEVEL PRESSURE IN INCHES OF HG     <
>     WCI    - WIND CHILL INDEX                            <
>     VSB    - VISIBILITY IN MILES                         <
>     HX     - HEAT INDEX                                  <
>     TC     - TEMPERATURE IN CELSIUS                      <
>     VRB    - VARIABLE WIND DIRECTION                     <
>                                                          <
>>>>>>>>>>>>>>>>>>>>>>>>>>>> KEY <<<<<<<<<<<<<<<<<<<<<<<<<<<





USA.gov is the U.S. government's official web portal to all federal, state and local government web resources and services.